Date String (YYYY-MM-DD hh:mm:ss) UTC,Instrument flags,absolute air pressure of the measurement (hPa),sample flow rate (lpm),inlet stack bypass flow (lpm),air temperature of the measurement (°C),ambient temperature measured by the external sensor (°C),aerosol sample conditioner tube jacket temperature (°C),OPC LED temperature (°C),internal box temperature (°C),relative humidity of the measurement (%),span deviation,mass concentration of particles derived from Lorenz-Mie calculation of OPC scattering (μg/m³),mass concentration of particles derived from Lorenz-Mie calculation of OPC scattering (μg/m³),mass concentration of particles derived from Lorenz-Mie calculation of OPC scattering (μg/m³)
DateTimeUTC,F1_M11,P_M11,Q1_M11,Q2_M11,T1_M11,T2_M11,T3_M11,T4_M11,T5_M11,U1_M11,ZSPAN_M11,X0_M11,X2_M11,X1_M11
2024-03-03 14:00:00,SystemResetWarning,0816.4,5.01,000.00,018.6,017.9,000.0,027.2,020.3,08.9,0000.0,0001.06,0000.39,0000.14
2024-03-03 14:01:00,SystemResetWarning,0816.5,5.00,000.00,018.6,017.9,000.0,027.2,020.3,08.9,0000.0,0001.06,0000.40,0000.15
2024-03-03 14:02:00,SystemResetWarning,0816.5,4.99,000.00,018.6,017.9,000.0,027.1,020.3,08.9,0000.0,0001.01,0000.38,0000.16
2024-03-03 14:03:00,SystemResetWarning,0816.5,5.00,000.00,018.6,017.9,000.0,027.1,020.3,09.0,0000.0,0001.04,0000.39,0000.16
2024-03-03 14:04:00,SystemResetWarning,0816.7,4.99,000.00,018.6,017.9,000.0,027.1,020.4,09.0,0000.0,0001.07,0000.39,0000.15
2024-03-03 14:05:00,SystemResetWarning,0816.6,5.00,000.00,018.6,017.9,000.0,027.1,020.4,09.1,0000.0,0001.20,0000.40,0000.16
2024-03-03 14:06:00,SystemResetWarning,0816.7,5.01,000.00,018.6,017.8,000.0,027.1,020.3,09.1,0000.0,0001.24,0000.41,0000.16
2024-03-03 14:07:00,SystemResetWarning,0816.7,5.01,000.00,018.6,017.8,000.0,027.1,020.3,09.3,0000.0,0001.29,0000.39,0000.15
2024-03-03 14:08:00,SystemResetWarning,0816.6,4.99,000.00,018.6,017.8,000.0,027.1,020.3,09.2,0000.0,0001.23,0000.36,0000.14
2024-03-03 14:09:00,SystemResetWarning,0816.7,4.99,000.00,018.6,017.8,000.0,027.1,020.3,09.3,0000.0,0001.03,0000.35,0000.14
2024-03-03 14:10:00,SystemResetWarning,0816.7,5.00,000.00,018.6,017.8,000.0,027.1,020.3,09.1,0000.0,0000.89,0000.32,0000.14
2024-03-03 14:11:00,SystemResetWarning,0816.8,5.01,000.00,018.5,017.7,000.0,027.1,020.3,08.8,0000.0,0000.85,0000.30,0000.13
2024-03-03 14:12:00,SystemResetWarning,0816.9,5.00,000.00,018.5,017.7,000.0,027.1,020.2,08.9,0000.0,0001.46,0000.26,0000.13
2024-03-03 14:13:00,SystemResetWarning,0816.9,5.00,000.00,018.5,017.7,000.0,027.1,020.2,08.8,0000.0,0001.67,0000.26,0000.13
2024-03-03 14:14:00,SystemResetWarning,0816.9,5.00,000.00,018.5,017.6,000.0,027.1,020.2,08.9,0000.0,0001.69,0000.26,0000.14
2024-03-03 14:15:00,SystemResetWarning,0816.9,5.00,000.00,018.5,017.6,000.0,027.1,020.2,08.8,0000.0,0001.70,0000.28,0000.14
2024-03-03 14:16:00,SystemResetWarning,0816.9,4.99,000.00,018.5,017.7,000.0,027.1,020.2,08.8,0000.0,0001.57,0000.28,0000.15
2024-03-03 14:17:00,SystemResetWarning,0816.9,5.00,000.00,018.5,017.7,000.0,027.1,020.2,08.8,0000.0,0001.58,0000.28,0000.15
2024-03-03 14:18:00,SystemResetWarning,0817.0,5.00,000.00,018.5,017.7,000.0,027.0,020.2,09.1,0000.0,0001.70,0000.30,0000.16
2024-03-03 14:19:00,SystemResetWarning,0817.1,5.01,000.00,018.4,017.6,000.0,027.0,020.2,09.1,0000.0,0001.72,0000.31,0000.16
2024-03-03 14:20:00,SystemResetWarning,0817.1,5.01,000.00,018.4,017.6,000.0,027.0,020.1,09.2,0000.0,0001.99,0000.35,0000.16
2024-03-03 14:21:00,SystemResetWarning,0817.1,5.00,000.00,018.4,017.6,000.0,027.0,020.1,09.3,0000.0,0002.15,0000.38,0000.16
2024-03-03 14:22:00,SystemResetWarning,0817.1,4.99,000.00,018.4,017.6,000.0,027.0,020.1,09.7,0000.0,0002.21,0000.38,0000.16
2024-03-03 14:23:00,SystemResetWarning,0817.1,4.99,000.00,018.4,017.6,000.0,027.0,020.1,09.8,0000.0,0001.59,0000.38,0000.16
2024-03-03 14:24:00,SystemResetWarning,0817.0,5.01,000.00,018.4,017.6,000.0,027.0,020.1,10.1,0000.0,0001.40,0000.39,0000.16
2024-03-03 14:25:00,SystemResetWarning,0816.9,5.01,000.00,018.4,017.6,000.0,027.0,020.1,10.2,0000.0,0001.53,0000.40,0000.16
2024-03-03 14:26:00,SystemResetWarning,0816.9,4.99,000.00,018.4,017.6,000.0,027.0,020.1,10.3,0000.0,0001.61,0000.42,0000.15
2024-03-03 14:27:00,SystemResetWarning,0816.9,4.99,000.00,018.4,017.6,000.0,027.0,020.1,10.2,0000.0,0001.60,0000.43,0000.15
2024-03-03 14:28:00,SystemResetWarning,0816.9,5.01,000.00,018.4,017.6,000.0,027.0,020.1,10.1,0000.0,0001.53,0000.41,0000.14
2024-03-03 14:29:00,SystemResetWarning,0816.9,5.00,000.00,018.4,017.6,000.0,027.0,020.1,10.3,0000.0,0001.59,0000.39,0000.14
2024-03-03 14:30:00,SystemResetWarning,0816.9,5.00,000.00,018.4,017.6,000.0,027.0,020.1,09.9,0000.0,0002.46,0000.36,0000.14
2024-03-03 14:31:00,SystemResetWarning,0816.9,5.00,000.00,018.4,017.6,000.0,026.9,020.1,09.9,0000.0,0002.33,0000.34,0000.14
2024-03-03 14:32:00,SystemResetWarning,0816.9,5.00,000.00,018.3,017.6,000.0,026.9,020.0,10.3,0000.0,0002.24,0000.34,0000.14
2024-03-03 14:33:00,SystemResetWarning,0816.9,4.99,000.00,018.3,017.6,000.0,026.9,020.0,10.5,0000.0,0003.28,0000.36,0000.14
2024-03-03 14:34:00,SystemResetWarning,0816.8,5.00,000.00,018.3,017.5,000.0,026.9,020.0,10.4,0000.0,0003.47,0000.35,0000.14
2024-03-03 14:35:00,SystemResetWarning,0816.8,5.00,000.00,018.3,017.5,000.0,026.9,020.0,10.2,0000.0,0003.54,0000.35,0000.14
2024-03-03 14:36:00,SystemResetWarning,0816.8,5.00,000.00,018.3,017.5,000.0,026.9,020.1,10.5,0000.0,0003.43,0000.33,0000.14
2024-03-03 14:37:00,SystemResetWarning,0816.8,5.00,000.00,018.3,017.5,000.0,026.9,020.1,10.7,0000.0,0003.30,0000.30,0000.14
2024-03-03 14:38:00,SystemResetWarning,0816.8,4.99,000.00,018.3,017.5,000.0,026.9,020.0,11.0,0000.0,0003.28,0000.28,0000.14
2024-03-03 14:39:00,SystemResetWarning,0816.6,5.00,000.00,018.3,017.5,000.0,026.9,020.0,10.6,0000.0,0003.29,0000.28,0000.14
2024-03-03 14:40:00,SystemResetWarning,0816.6,5.00,000.00,018.3,017.5,000.0,026.9,020.0,10.7,0000.0,0003.21,0000.31,0000.14
2024-03-03 14:41:00,SystemResetWarning,0816.6,5.01,000.00,018.3,017.5,000.0,026.9,020.0,10.5,0000.0,0002.30,0000.33,0000.15
2024-03-03 14:42:00,SystemResetWarning,0816.6,5.00,000.00,018.3,017.5,000.0,026.9,020.0,10.6,0000.0,0002.35,0000.35,0000.14
2024-03-03 14:43:00,SystemResetWarning,0816.7,5.00,000.00,018.3,017.5,000.0,026.9,020.0,10.9,0000.0,0002.28,0000.33,0000.14
2024-03-03 14:44:00,SystemResetWarning,0816.8,5.00,000.00,018.3,017.5,000.0,026.9,020.0,10.4,0000.0,0001.21,0000.33,0000.15
2024-03-03 14:45:00,SystemResetWarning,0816.9,5.00,000.00,018.3,017.5,000.0,026.9,020.0,10.5,0000.0,0000.93,0000.32,0000.14
2024-03-03 14:46:00,SystemResetWarning,0816.8,5.00,000.00,018.3,017.5,000.0,026.9,020.0,10.8,0000.0,0000.91,0000.33,0000.15
2024-03-03 14:47:00,SystemResetWarning,0816.8,5.00,000.00,018.3,017.5,000.0,026.9,020.0,10.5,0000.0,0000.99,0000.36,0000.15
2024-03-03 14:48:00,SystemResetWarning,0816.8,5.00,000.00,018.3,017.5,000.0,026.9,020.0,10.5,0000.0,0001.05,0000.39,0000.15
2024-03-03 14:49:00,SystemResetWarning,0816.8,5.00,000.00,018.3,017.4,000.0,026.9,020.0,10.2,0000.0,0001.05,0000.40,0000.15
2024-03-03 14:50:00,SystemResetWarning,0816.8,5.00,000.00,018.3,017.4,000.0,026.9,020.0,10.3,0000.0,0001.05,0000.40,0000.16
2024-03-03 14:51:00,SystemResetWarning,0816.8,5.00,000.00,018.3,017.5,000.0,026.9,020.0,10.6,0000.0,0001.00,0000.39,0000.16
2024-03-03 14:52:00,SystemResetWarning,0816.9,5.00,000.00,018.3,017.4,000.0,026.9,020.0,10.7,0000.0,0000.86,0000.36,0000.16
2024-03-03 14:53:00,SystemResetWarning,0816.8,5.00,000.00,018.3,017.4,000.0,026.9,020.0,10.8,0000.0,0000.69,0000.33,0000.15
2024-03-03 14:54:00,SystemResetWarning,0816.8,5.00,000.00,018.3,017.4,000.0,026.9,020.0,10.8,0000.0,0000.68,0000.32,0000.15
2024-03-03 14:55:00,SystemResetWarning,0816.8,5.01,000.00,018.3,017.4,000.0,026.9,020.0,10.6,0000.0,0000.66,0000.32,0000.15
2024-03-03 14:56:00,SystemResetWarning,0816.8,5.01,000.00,018.3,017.4,000.0,026.9,020.0,10.5,0000.0,0000.66,0000.32,0000.16
2024-03-03 14:57:00,SystemResetWarning,0816.9,4.99,000.00,018.3,017.3,000.0,026.9,020.0,10.5,0000.0,0000.75,0000.36,0000.16
2024-03-03 14:58:00,SystemResetWarning,0816.8,4.99,000.00,018.3,017.3,000.0,026.9,020.0,10.5,0000.0,0000.76,0000.38,0000.16
2024-03-03 14:59:00,SystemResetWarning,0816.9,5.00,000.00,018.3,017.3,000.0,027.0,020.0,10.5,0000.0,0000.72,0000.35,0000.16
